Voltar ao catálogo

STARLINK-5996

AtivoComunicaçõesVLEO
NORAD 57227·PAYLOAD·🇺🇸 United States

Lançado Jul 7, 2023 de Vandenberg Space Force Base

Loading…

Próximas Passagens (próximas 24 horas)

TLE

AtualizadoSource: CelesTrak SupGP

Época: Sep 15, 2026, 01:52 UTC

1 57227C 23094K   26258.07826389 -.00055486  00000+0 -20095-2 0  2582
2 57227  43.0018  44.3849 0001951 259.1317  43.2532 15.27608303    12

Acompanhe STARLINK-5996 em tempo real com AllMySat

Download on the App Store